User: anonymous
Location: NJAA Observatory
(40.6819°N, 74.8979°W)
Time: 21:42:22
(UTC-04:00)
Language:

Iridium 84 - Orbit

View from above orbital plane
View from above orbital plane
View from above satellite
View from above satellite

Ground track
Ground track

The orbit data is extracted from the following two-line orbital elements,

1 25530U 98066D   14212.45430904  .00000161  00000-0  50529-4 0  7185
2 25530 086.3929 069.6684 0002157 100.2628 259.8811 14.34219168826253
Epoch (UTC): 31 July 2014 10:54:12
Eccentricity: 0.0002157
inclination: 86.3929°
perigee height: 776 km
apogee height: 779 km
right ascension of ascending node: 69.6684°
argument of perigee: 100.2628°
revolutions per day: 14.34219168
mean anomaly at epoch: 259.8811°
orbit number at epoch: 82625

The dashed part of the orbit path shows where the satellite is in the earth's shadow,  

DLR